Location: Hebron
(33.0265°N, 96.8636°W)
Time: 02:33:16
(UTC+00:00)

Okean 1 - Pass Details

Date: 03 July 2022
Orbit: 532 x 553 km, 82.5° (Epoch: 13 August)

Event Time Altitude Azimuth Distance (km) Brightness Sun altitude
Rises 10:34:53 0° 336° (NNW) 2,685 7.0 -9.5°
Reaches altitude 10° 10:37:23 10° 321° (NW) 1,787 5.9 -9.0°
Maximum altitude 10:40:25 22° 271° (W) 1,207 4.6 -8.5°
Drops below altitude 10° 10:43:25 10° 220° (SW) 1,774 5.3 -8.0°
Enters shadow 10:43:42 - 217° (SW) 1,864 5.4 -7.9°
